Time,TemperatureF,DewpointF,PressureIn,WindDirection,WindDirectionDegrees,WindSpeedMPH,WindSpeedGustMPH,Humidity,HourlyPrecipIn,Conditions,Clouds,dailyrainin,SoftwareType,DateUTC
2013-06-06 00:03:00,67.0,32.0,-100.00,ENE,73,0.0,0.0,27,0.00,,,-99.99,,2013-06-06 04:03:00,
2013-06-06 00:13:00,62.0,32.0,-100.00,ENE,72,0.0,0.0,32,0.00,,,-99.99,,2013-06-06 04:13:00,
2013-06-06 00:23:00,67.0,32.0,-100.00,ENE,72,0.0,0.0,27,0.00,,,-99.99,,2013-06-06 04:23:00,
2013-06-06 00:33:00,64.0,32.0,-100.00,ENE,72,0.0,0.0,30,0.00,,,-99.99,,2013-06-06 04:33:00,
2013-06-06 00:42:00,65.0,32.0,-100.00,ENE,72,0.0,0.0,29,-99.99,,,-99.99,,2013-06-06 04:42:00,
2013-06-06 00:53:00,63.0,32.0,-100.00,ENE,73,0.0,0.0,31,1.14,,,-99.99,,2013-06-06 04:53:00,
2013-06-06 01:02:00,60.0,32.0,-100.00,ENE,73,0.0,0.0,34,3.39,,,-99.99,,2013-06-06 05:02:00,
2013-06-06 01:12:00,59.0,32.0,-100.00,ENE,73,0.0,0.0,35,0.00,,,-99.99,,2013-06-06 05:12:00,
2013-06-06 01:23:00,59.0,32.0,-100.00,ENE,73,0.0,0.0,35,0.00,,,-99.99,,2013-06-06 05:23:00,
2013-06-06 01:32:00,61.0,32.0,-100.00,ENE,73,0.0,0.0,33,0.00,,,-99.99,,2013-06-06 05:32:00,
2013-06-06 01:42:00,59.0,32.0,-100.00,ENE,73,0.0,0.0,35,0.00,,,-99.99,,2013-06-06 05:42:00,
2013-06-06 01:52:00,59.0,32.0,-100.00,ENE,73,0.0,0.0,35,0.00,,,-99.99,,2013-06-06 05:52:00,
2013-06-06 02:02:00,59.0,32.0,-100.00,ENE,73,0.0,0.0,35,0.00,,,-99.99,,2013-06-06 06:02:00,
2013-06-06 02:12:00,60.0,32.0,-100.00,ENE,73,0.0,0.0,34,0.00,,,-99.99,,2013-06-06 06:12:00,
2013-06-06 02:22:00,59.0,32.0,-100.00,ENE,73,0.0,0.0,35,0.00,,,-99.99,,2013-06-06 06:22:00,
2013-06-06 02:33:00,59.0,32.0,-100.00,ENE,73,0.0,0.0,35,0.00,,,-99.99,,2013-06-06 06:33:00,
2013-06-06 02:42:00,60.0,32.0,-100.00,ENE,73,0.0,0.0,34,0.00,,,-99.99,,2013-06-06 06:42:00,
2013-06-06 02:52:00,59.0,32.0,-100.00,ENE,73,0.0,0.0,35,0.00,,,-99.99,,2013-06-06 06:52:00,
2013-06-06 03:02:00,58.0,32.0,-100.00,ENE,73,0.0,0.0,37,0.00,,,-99.99,,2013-06-06 07:02:00,
2013-06-06 03:12:00,58.0,32.0,-100.00,ENE,73,0.0,0.0,37,0.00,,,-99.99,,2013-06-06 07:12:00,
2013-06-06 03:22:00,57.0,32.0,-100.00,ENE,73,0.0,0.0,38,0.00,,,-99.99,,2013-06-06 07:22:00,
2013-06-06 03:32:00,58.0,32.0,-100.00,ENE,73,0.0,0.0,37,0.00,,,-99.99,,2013-06-06 07:32:00,
2013-06-06 03:42:00,55.0,32.0,-100.00,ENE,73,0.0,0.0,41,0.00,,,-99.99,,2013-06-06 07:42:00,
2013-06-06 03:52:00,55.0,32.0,-100.00,ENE,73,0.0,0.0,41,0.00,,,-99.99,,2013-06-06 07:52:00,
2013-06-06 04:02:00,55.0,32.0,-100.00,ENE,73,0.0,0.0,41,0.00,,,-99.99,,2013-06-06 08:02:00,
2013-06-06 04:12:00,55.0,32.0,-100.00,ENE,73,0.0,0.0,41,0.00,,,-99.99,,2013-06-06 08:12:00,
2013-06-06 04:22:00,55.0,32.0,-100.00,ENE,72,0.0,0.0,41,0.00,,,-99.99,,2013-06-06 08:22:00,
2013-06-06 04:32:00,55.0,32.0,-100.00,ENE,72,0.0,0.0,41,0.00,,,-99.99,,2013-06-06 08:32:00,
2013-06-06 04:42:00,55.0,32.0,-100.00,ENE,73,0.0,0.0,41,2.83,,,-99.99,,2013-06-06 08:42:00,
2013-06-06 04:52:00,56.0,32.0,-100.00,ENE,73,0.0,0.0,39,31.73,,,-99.99,,2013-06-06 08:52:00,
2013-06-06 05:02:00,55.0,32.0,-100.00,ENE,73,0.0,0.0,41,1.69,,,-99.99,,2013-06-06 09:02:00,
2013-06-06 05:12:00,54.0,32.0,-100.00,ENE,72,0.0,0.0,42,-99.99,,,-99.99,,2013-06-06 09:12:00,
2013-06-06 05:22:00,51.0,32.0,-100.00,ENE,73,0.0,0.0,47,-99.99,,,-99.99,,2013-06-06 09:22:00,
2013-06-06 05:33:00,50.0,32.0,-100.00,ENE,73,0.0,0.0,49,0.00,,,-99.99,,2013-06-06 09:33:00,
2013-06-06 05:43:00,50.0,32.0,-100.00,ENE,73,0.0,0.0,49,0.00,,,-99.99,,2013-06-06 09:43:00,
2013-06-06 05:53:00,50.0,32.0,-100.00,ENE,73,0.0,0.0,49,0.00,,,-99.99,,2013-06-06 09:53:00,
2013-06-06 06:03:00,50.0,32.0,-100.00,ENE,73,0.0,0.0,49,0.00,,,-99.99,,2013-06-06 10:03:00,
2013-06-06 06:12:00,50.0,32.0,-100.00,ENE,73,0.0,0.0,49,0.00,,,-99.99,,2013-06-06 10:12:00,
2013-06-06 06:23:00,53.0,32.0,-100.00,ENE,73,0.0,0.0,44,0.00,,,-99.99,,2013-06-06 10:23:00,
2013-06-06 06:33:00,52.0,32.0,-100.00,ENE,73,0.0,0.0,46,0.00,,,-99.99,,2013-06-06 10:33:00,
2013-06-06 06:42:00,54.0,32.0,-100.00,ENE,72,0.0,0.0,42,0.00,,,-99.99,,2013-06-06 10:42:00,
2013-06-06 06:52:00,52.0,32.0,-100.00,ENE,73,0.0,0.0,46,0.00,,,-99.99,,2013-06-06 10:52:00,
2013-06-06 07:02:00,55.0,32.0,-100.00,ENE,73,0.0,0.0,41,0.00,,,-99.99,,2013-06-06 11:02:00,
2013-06-06 07:12:00,51.0,32.0,-100.00,ENE,73,0.0,0.0,47,0.00,,,-99.99,,2013-06-06 11:12:00,
2013-06-06 07:23:00,51.0,32.0,-100.00,ENE,73,0.0,0.0,47,0.00,,,-99.99,,2013-06-06 11:23:00,
2013-06-06 07:32:00,55.0,32.0,-100.00,ENE,72,0.0,0.0,41,0.00,,,-99.99,,2013-06-06 11:32:00,
2013-06-06 07:42:00,55.0,32.0,-100.00,ENE,73,0.0,0.0,41,0.00,,,-99.99,,2013-06-06 11:42:00,
2013-06-06 07:52:00,52.0,32.0,-100.00,ENE,73,0.0,0.0,46,0.00,,,-99.99,,2013-06-06 11:52:00,
2013-06-06 08:03:00,51.0,32.0,-100.00,ENE,73,0.0,0.0,47,0.00,,,-99.99,,2013-06-06 12:03:00,
2013-06-06 08:13:00,54.0,32.0,-100.00,ENE,73,0.0,0.0,42,0.00,,,-99.99,,2013-06-06 12:13:00,
2013-06-06 08:23:00,54.0,32.0,-100.00,ENE,73,0.0,0.0,42,0.00,,,-99.99,,2013-06-06 12:23:00,
2013-06-06 08:33:00,54.0,32.0,-100.00,ENE,73,0.0,0.0,42,0.00,,,-99.99,,2013-06-06 12:33:00,
2013-06-06 08:43:00,54.0,32.0,-100.00,ENE,72,0.0,0.0,42,4.53,,,-99.99,,2013-06-06 12:43:00,
2013-06-06 08:52:00,52.0,32.0,-100.00,ENE,73,0.0,0.0,46,5.67,,,-99.99,,2013-06-06 12:52:00,
2013-06-06 09:03:00,52.0,32.0,-100.00,ENE,73,0.0,0.0,46,0.00,,,-99.99,,2013-06-06 13:03:00,
2013-06-06 09:13:00,52.0,32.0,-100.00,ENE,73,0.0,0.0,46,0.00,,,-99.99,,2013-06-06 13:13:00,
2013-06-06 09:23:00,51.0,32.0,-100.00,ENE,73,0.0,0.0,47,0.00,,,-99.99,,2013-06-06 13:23:00,
2013-06-06 09:33:00,52.0,32.0,-100.00,ENE,73,0.0,0.0,46,0.00,,,-99.99,,2013-06-06 13:33:00,
2013-06-06 09:43:00,52.0,32.0,-100.00,ENE,73,0.0,0.0,46,0.00,,,-99.99,,2013-06-06 13:43:00,
2013-06-06 09:52:00,53.0,32.0,-100.00,ENE,73,0.0,0.0,44,0.00,,,-99.99,,2013-06-06 13:52:00,
2013-06-06 10:03:00,53.0,32.0,-100.00,ENE,73,0.0,0.0,44,0.00,,,-99.99,,2013-06-06 14:03:00,
2013-06-06 10:13:00,53.0,32.0,-100.00,ENE,73,0.0,0.0,44,0.00,,,-99.99,,2013-06-06 14:13:00,
2013-06-06 10:23:00,54.0,32.0,-100.00,ENE,73,0.0,0.0,42,0.00,,,-99.99,,2013-06-06 14:23:00,
2013-06-06 10:33:00,55.0,32.0,-100.00,ENE,73,0.0,0.0,41,0.00,,,-99.99,,2013-06-06 14:33:00,
2013-06-06 10:43:00,54.0,32.0,-100.00,ENE,73,0.0,0.0,42,0.00,,,-99.99,,2013-06-06 14:43:00,
2013-06-06 10:52:00,55.0,32.0,-100.00,ENE,73,0.0,0.0,41,0.00,,,-99.99,,2013-06-06 14:52:00,
2013-06-06 11:03:00,56.0,32.0,-100.00,ENE,73,0.0,0.0,39,0.00,,,-99.99,,2013-06-06 15:03:00,
2013-06-06 11:13:00,57.0,32.0,-100.00,ENE,73,0.0,0.0,38,0.00,,,-99.99,,2013-06-06 15:13:00,
2013-06-06 11:23:00,56.0,32.0,-100.00,ENE,73,0.0,0.0,39,0.00,,,-99.99,,2013-06-06 15:23:00,
2013-06-06 11:33:00,57.0,32.0,-100.00,ENE,73,0.0,0.0,38,0.00,,,-99.99,,2013-06-06 15:33:00,
2013-06-06 11:43:00,58.0,32.0,-100.00,ENE,73,0.0,0.0,37,0.00,,,-99.99,,2013-06-06 15:43:00,
2013-06-06 11:53:00,58.0,32.0,-100.00,ENE,73,0.0,0.0,37,0.00,,,-99.99,,2013-06-06 15:53:00,
2013-06-06 12:03:00,59.0,32.0,-100.00,ENE,73,0.0,0.0,35,0.00,,,-99.99,,2013-06-06 16:03:00,
2013-06-06 12:13:00,59.0,32.0,-100.00,ENE,73,0.0,0.0,35,0.00,,,-99.99,,2013-06-06 16:13:00,
2013-06-06 12:23:00,59.0,32.0,-100.00,ENE,73,0.0,0.0,35,0.00,,,-99.99,,2013-06-06 16:23:00,
2013-06-06 12:33:00,60.0,32.0,-100.00,ENE,73,0.0,0.0,34,0.00,,,-99.99,,2013-06-06 16:33:00,
2013-06-06 12:44:00,60.0,32.0,-100.00,ENE,73,0.0,0.0,34,3.98,,,-99.99,,2013-06-06 16:44:00,
2013-06-06 12:52:00,60.0,32.0,-100.00,ENE,72,0.0,0.0,34,1.14,,,-99.99,,2013-06-06 16:52:00,
2013-06-06 13:03:00,59.0,32.0,-100.00,ENE,72,0.0,0.0,35,-99.99,,,-99.99,,2013-06-06 17:03:00,
2013-06-06 13:13:00,57.0,32.0,-100.00,ENE,73,0.0,0.0,38,-99.99,,,-99.99,,2013-06-06 17:13:00,
2013-06-06 13:23:00,55.0,32.0,-100.00,ENE,73,0.0,0.0,41,-99.99,,,-99.99,,2013-06-06 17:23:00,
2013-06-06 13:33:00,55.0,32.0,-100.00,ENE,73,0.0,0.0,41,-99.99,,,-99.99,,2013-06-06 17:33:00,
2013-06-06 13:43:00,53.0,32.0,-100.00,ENE,73,0.0,0.0,44,-99.99,,,-99.99,,2013-06-06 17:43:00,
2013-06-06 13:52:00,53.0,32.0,-100.00,ENE,73,0.0,0.0,44,-99.99,,,-99.99,,2013-06-06 17:52:00,
2013-06-06 14:03:00,50.0,32.0,-100.00,ENE,73,0.0,0.0,49,-99.99,,,-99.99,,2013-06-06 18:03:00,
2013-06-06 14:13:00,48.0,32.0,-100.00,ENE,73,0.0,0.0,53,-99.99,,,-99.99,,2013-06-06 18:13:00,
2013-06-06 14:23:00,48.0,32.0,-100.00,ENE,72,0.0,0.0,53,-99.99,,,-99.99,,2013-06-06 18:23:00,
2013-06-06 14:33:00,47.0,32.0,-100.00,ENE,73,0.0,0.0,55,31.73,,,-99.99,,2013-06-06 18:33:00,
2013-06-06 14:43:00,47.0,32.0,-100.00,ENE,73,0.0,0.0,55,24.96,,,-99.99,,2013-06-06 18:43:00,
2013-06-06 14:53:00,47.0,32.0,-100.00,ENE,73,0.0,0.0,55,-99.99,,,-99.99,,2013-06-06 18:53:00,
2013-06-06 15:03:00,48.0,32.0,-100.00,ENE,73,0.0,0.0,53,-99.99,,,-99.99,,2013-06-06 19:03:00,
2013-06-06 15:13:00,49.0,32.0,-100.00,ENE,72,0.0,0.0,51,-99.99,,,-99.99,,2013-06-06 19:13:00,
2013-06-06 15:23:00,48.0,32.0,-100.00,ENE,73,0.0,0.0,53,-99.99,,,-99.99,,2013-06-06 19:23:00,
2013-06-06 15:33:00,47.0,32.0,-100.00,ENE,73,0.0,0.0,55,2.28,,,-99.99,,2013-06-06 19:33:00,
2013-06-06 15:43:00,51.0,32.0,-100.00,ENE,73,0.0,0.0,47,0.00,,,-99.99,,2013-06-06 19:43:00,
2013-06-06 15:53:00,53.0,32.0,-100.00,ENE,72,0.0,0.0,44,0.00,,,-99.99,,2013-06-06 19:53:00,
2013-06-06 16:03:00,56.0,32.0,-100.00,ENE,73,0.0,0.0,39,0.00,,,-99.99,,2013-06-06 20:03:00,
2013-06-06 16:13:00,55.0,32.0,-100.00,ENE,73,0.0,0.0,41,0.00,,,-99.99,,2013-06-06 20:13:00,
2013-06-06 16:23:00,56.0,32.0,-100.00,ENE,72,0.0,0.0,39,0.00,,,-99.99,,2013-06-06 20:23:00,
2013-06-06 16:33:00,58.0,32.0,-100.00,ENE,72,0.0,0.0,37,0.00,,,-99.99,,2013-06-06 20:33:00,
2013-06-06 16:43:00,58.0,32.0,-100.00,ENE,72,0.0,0.0,37,0.00,,,-99.99,,2013-06-06 20:43:00,
2013-06-06 16:53:00,58.0,32.0,-100.00,ENE,72,0.0,0.0,37,0.00,,,-99.99,,2013-06-06 20:53:00,
2013-06-06 17:03:00,58.0,32.0,-100.00,ENE,73,0.0,0.0,37,0.00,,,-99.99,,2013-06-06 21:03:00,
2013-06-06 17:13:00,59.0,32.0,-100.00,ENE,73,0.0,0.0,35,0.00,,,-99.99,,2013-06-06 21:13:00,
2013-06-06 17:23:00,59.0,32.0,-100.00,ENE,72,0.0,0.0,35,0.00,,,-99.99,,2013-06-06 21:23:00,
2013-06-06 17:33:00,61.0,32.0,-100.00,ENE,73,0.0,0.0,33,0.00,,,-99.99,,2013-06-06 21:33:00,
2013-06-06 17:44:00,61.0,32.0,-100.00,ENE,73,0.0,0.0,33,0.00,,,-99.99,,2013-06-06 21:44:00,
2013-06-06 17:53:00,61.0,32.0,-100.00,ENE,73,0.0,0.0,33,0.00,,,-99.99,,2013-06-06 21:53:00,
2013-06-06 18:03:00,62.0,32.0,-100.00,ENE,73,0.0,0.0,32,0.00,,,-99.99,,2013-06-06 22:03:00,
2013-06-06 18:13:00,63.0,32.0,-100.00,ENE,72,0.0,0.0,31,0.00,,,-99.99,,2013-06-06 22:13:00,
2013-06-06 18:23:00,64.0,32.0,-100.00,ENE,73,0.0,0.0,30,0.00,,,-99.99,,2013-06-06 22:23:00,
2013-06-06 18:33:00,63.0,32.0,-100.00,ENE,73,0.0,0.0,31,0.00,,,-99.99,,2013-06-06 22:33:00,
2013-06-06 18:43:00,61.0,32.0,-100.00,ENE,73,0.0,0.0,33,0.00,,,-99.99,,2013-06-06 22:43:00,
2013-06-06 18:53:00,61.0,32.0,-100.00,ENE,73,0.0,0.0,33,0.00,,,-99.99,,2013-06-06 22:53:00,
2013-06-06 19:03:00,60.0,32.0,-100.00,ENE,73,0.0,0.0,34,0.00,,,-99.99,,2013-06-06 23:03:00,
2013-06-06 19:13:00,60.0,32.0,-100.00,ENE,73,0.0,0.0,34,0.00,,,-99.99,,2013-06-06 23:13:00,
2013-06-06 19:22:00,58.0,32.0,-100.00,ENE,73,0.0,0.0,37,0.00,,,-99.99,,2013-06-06 23:22:00,
2013-06-06 19:33:00,57.0,32.0,-100.00,ENE,73,0.0,0.0,38,0.00,,,-99.99,,2013-06-06 23:33:00,
2013-06-06 19:43:00,57.0,32.0,-100.00,ENE,73,0.0,0.0,38,0.00,,,-99.99,,2013-06-06 23:43:00,
2013-06-06 19:52:00,57.0,32.0,-100.00,ENE,73,0.0,0.0,38,0.00,,,-99.99,,2013-06-06 23:52:00,
2013-06-06 20:02:00,58.0,32.0,-100.00,ENE,73,0.0,0.0,37,0.00,,,-99.99,,2013-06-07 00:02:00,
2013-06-06 20:13:00,58.0,32.0,-100.00,ENE,73,0.0,0.0,37,0.00,,,-99.99,,2013-06-07 00:13:00,
2013-06-06 20:22:00,58.0,32.0,-100.00,ENE,73,0.0,0.0,37,0.00,,,-99.99,,2013-06-07 00:22:00,
2013-06-06 20:32:00,58.0,32.0,-100.00,ENE,73,0.0,0.0,37,0.00,,,-99.99,,2013-06-07 00:32:00,
2013-06-06 20:42:00,58.0,32.0,-100.00,ENE,73,0.0,0.0,37,0.00,,,-99.99,,2013-06-07 00:42:00,
2013-06-06 20:52:00,57.0,32.0,-100.00,ENE,73,0.0,0.0,38,0.00,,,-99.99,,2013-06-07 00:52:00,
2013-06-06 21:03:00,57.0,32.0,-100.00,ENE,73,0.0,0.0,38,0.00,,,-99.99,,2013-06-07 01:03:00,
2013-06-06 21:12:00,57.0,32.0,-100.00,ENE,73,0.0,0.0,38,0.00,,,-99.99,,2013-06-07 01:12:00,
2013-06-06 21:22:00,56.0,32.0,-100.00,ENE,73,0.0,0.0,39,0.00,,,-99.99,,2013-06-07 01:22:00,
2013-06-06 21:32:00,54.0,32.0,-100.00,ENE,73,0.0,0.0,42,0.00,,,-99.99,,2013-06-07 01:32:00,
2013-06-06 21:42:00,54.0,32.0,-100.00,ENE,73,0.0,0.0,42,0.00,,,-99.99,,2013-06-07 01:42:00,
2013-06-06 21:52:00,53.0,32.0,-100.00,ENE,73,0.0,0.0,44,0.00,,,-99.99,,2013-06-07 01:52:00,
2013-06-06 22:02:00,53.0,32.0,-100.00,ENE,73,0.0,0.0,44,0.00,,,-99.99,,2013-06-07 02:02:00,
2013-06-06 22:12:00,53.0,32.0,-100.00,ENE,73,0.0,0.0,44,0.00,,,-99.99,,2013-06-07 02:12:00,
2013-06-06 22:22:00,53.0,32.0,-100.00,ENE,73,0.0,0.0,44,0.00,,,-99.99,,2013-06-07 02:22:00,
2013-06-06 22:32:00,53.0,32.0,-100.00,ENE,73,0.0,0.0,44,0.00,,,-99.99,,2013-06-07 02:32:00,
2013-06-06 22:42:00,53.0,32.0,-100.00,ENE,73,0.0,0.0,44,0.00,,,-99.99,,2013-06-07 02:42:00,
2013-06-06 22:52:00,53.0,32.0,-100.00,ENE,73,0.0,0.0,44,0.00,,,-99.99,,2013-06-07 02:52:00,
2013-06-06 23:02:00,53.0,32.0,-100.00,ENE,73,0.0,0.0,44,0.00,,,-99.99,,2013-06-07 03:02:00,
2013-06-06 23:12:00,52.0,32.0,-100.00,ENE,73,0.0,0.0,46,0.00,,,-99.99,,2013-06-07 03:12:00,
2013-06-06 23:22:00,52.0,32.0,-100.00,ENE,73,0.0,0.0,46,0.00,,,-99.99,,2013-06-07 03:22:00,
2013-06-06 23:33:00,51.0,32.0,-100.00,ENE,73,0.0,0.0,47,0.00,,,-99.99,,2013-06-07 03:33:00,
2013-06-06 23:43:00,51.0,32.0,-100.00,ENE,73,0.0,0.0,47,0.00,,,-99.99,,2013-06-07 03:43:00,
2013-06-06 23:53:00,52.0,32.0,-100.00,ENE,73,0.0,0.0,46,0.00,,,-99.99,,2013-06-07 03:53:00,